{"data":{"norad_id":67304,"intl_designator":"2026-001A","name":"CSG-3","alt_names":[],"object_type":"PAYLOAD","status":"ACTIVE","operator":null,"country":"IT","launch_date":"2026-01-03","launch_site_code":"AFWTR","launch_vehicle":null,"mission":null,"orbit_class":"UNKNOWN","rcs_meters":null,"size_class":null,"mass_kg":null,"dimensions":null,"purposes":["earth_obs"],"wikipedia_slug":null,"has_3d_model":false,"image_url":null,"decayed_at":null,"tle_current":{"epoch":"2026-09-19T21:59:32.693568Z","epoch_age_seconds":68736,"freshness":"FRESH","line1":"1 67304U 26001A   26262.91635062  .00000174  00000+0  28457-4 0  9990","line2":"2 67304  97.8916  85.1718 0001346  88.3390 271.7977 14.82156513 38497","mean_motion":14.82156513,"eccentricity":0.0001346,"inclination_deg":97.8916,"raan_deg":85.1718,"arg_perigee_deg":88.339,"mean_anomaly_deg":271.7977,"bstar":2.8457e-5,"rev_number":3849,"period_min":97.155731352914,"perigee_km":621.58303688353,"apogee_km":623.4676151817,"semimajor_km":7000.6623260326,"source":"CELESTRAK","updated_at":"2026-09-20T09:00:34.133706Z"}}}